EW9120 Petrila RO current weather conditions

sailwx.info

Wind from 279 at 1 knots gusting 4

Air temperature -1.7° C
Dewpoint -5.7° C

Last reported at 2019-Jan-22 02:10 UTC.
Time now 2019-Jan-22 02:51 UTC

Location: N 45°27' E 023°23'.
View on Google Maps.

See reports from other nearby stations

  
Tides and Currents Weather Stations Pressure Air Temp Water Temp Dewpoint Dewpoint Depression Visibility Wind Speed Wind Dir Waves Ship Positions
date/time (UTC)wind fromknots sea level pressurealtimeterstation pressurevisibilityair tempwater tempwave heightnotes
2019-Jan-22 02:10 279 1 gusting 4 -1.7
2019-Jan-22 02:05 -1.7
2019-Jan-22 02:00 284 0 gusting 2 -1.7
2019-Jan-22 01:55 296 -1.7
2019-Jan-22 01:50 270 -1.7
2019-Jan-22 01:45 065 2 gusting 6 -1.7
2019-Jan-22 01:40 044 0 gusting 5 -1.7
2019-Jan-22 01:35 288 1 gusting 5 -1.7
2019-Jan-22 01:30 281 1 gusting 2 -1.7
2019-Jan-22 01:25 289 1 gusting 2 -1.7
2019-Jan-22 01:20 024 1 gusting 2 -1.7
2019-Jan-22 01:15 274 1 gusting 5 -1.7
2019-Jan-22 01:10 273 1 gusting 5 -1.7
2019-Jan-22 01:05 176 1 gusting 4 -1.7
2019-Jan-22 01:00 144 1 gusting 2 -1.7
2019-Jan-22 00:55 097 0 gusting 4 -1.7
2019-Jan-22 00:50 297 1 gusting 5 -1.7
2019-Jan-22 00:45 275 2 gusting 5 -1.7
2019-Jan-22 00:40 260 2 gusting 5 -1.7
2019-Jan-22 00:35 270 2 gusting 5 -1.7
2019-Jan-22 00:30 270 1 gusting 5 -1.7
2019-Jan-22 00:25 270 1 gusting 4 -1.7
2019-Jan-22 00:20 302 1 gusting 2 -1.7
2019-Jan-22 00:15 270 0 gusting 4 -1.7
2019-Jan-22 00:10 278 2 gusting 5 -1.1
2019-Jan-22 00:05 276 1 gusting 5 -1.1
2019-Jan-22 00:00 054 0 gusting 2 -1.1
2019-Jan-21 23:55 326 0 gusting 4 -1.1
2019-Jan-21 23:50 008 0 gusting 5 -1.1
2019-Jan-21 23:45 273 0 gusting 2 -1.1
2019-Jan-21 23:40 277 1 gusting 4 -1.1
2019-Jan-21 23:35 288 0 gusting 5 -1.1
2019-Jan-21 23:30 270 2 gusting 5 -1.1
2019-Jan-21 23:25 270 1 gusting 5 -1.1
2019-Jan-21 23:20 301 1 gusting 5 -1.1
2019-Jan-21 23:15 297 1 gusting 2 -1.1
2019-Jan-21 23:10 275 0 gusting 2 -1.1
2019-Jan-21 23:05 277 0 gusting 4 -1.1
2019-Jan-21 23:00 292 1 gusting 5 -1.1
2019-Jan-21 22:55 281 1 gusting 5 -1.1
2019-Jan-21 22:50 255 2 gusting 5 -1.1
2019-Jan-21 22:45 323 1 gusting 5 -1.1
2019-Jan-21 22:40 264 0 gusting 5 -1.1
2019-Jan-21 22:35 346 0 gusting 5 -1.1
2019-Jan-21 22:30 313 2 gusting 6 -1.1
2019-Jan-21 22:25 227 2 gusting 6 -0.6
2019-Jan-21 22:20 096 2 gusting 5 -0.6
2019-Jan-21 22:15 306 -0.6
2019-Jan-21 22:10 235 0 gusting 1 -0.6
2019-Jan-21 22:05 307 -1.1
2019-Jan-21 22:00 045 2 gusting 6 -1.1
2019-Jan-21 21:55 270 2 gusting 6 -0.6
2019-Jan-21 21:50 014 1 gusting 6 -0.6
2019-Jan-21 21:45 139 1 gusting 6 -0.6
2019-Jan-21 21:40 090 1 gusting 4 -0.6
2019-Jan-21 21:35 270 0 gusting 2 -0.6
2019-Jan-21 21:30 315 -0.6
2019-Jan-21 21:25 310 -0.6
2019-Jan-21 21:20 304 -0.6
2019-Jan-21 21:15 090 1 gusting 2 -0.6
2019-Jan-21 21:10 301 1 gusting 6 -0.6
2019-Jan-21 21:05 329 2 gusting 6 -0.6
2019-Jan-21 21:00 325 1 gusting 4 -0.6
2019-Jan-21 20:55 192 1 gusting 6 -0.6
2019-Jan-21 20:50 075 1 gusting 6 -0.6
2019-Jan-21 20:45 088 1 gusting 5 -0.6
2019-Jan-21 20:40 149 1 gusting 5 -0.6
2019-Jan-21 20:35 040 2 gusting 5 -0.6
2019-Jan-21 20:30 321 0 gusting 4 -0.6
2019-Jan-21 20:25 100 2 gusting 5 -0.6
2019-Jan-21 20:20 270 1 gusting 4 -0.6
2019-Jan-21 20:15 270 1 gusting 4 -0.6
2019-Jan-21 20:10 287 0 gusting 2 -0.6
2019-Jan-21 20:05 348 -0.6
2019-Jan-21 20:00 113 1 gusting 5 -0.6
2019-Jan-21 19:55 056 0 gusting 2 -0.6
2019-Jan-21 19:50 286 0 gusting 2 -0.6
2019-Jan-21 19:45 010 0 gusting 2 -0.6
2019-Jan-21 19:40 239 0 gusting 4 -0.6
2019-Jan-21 19:35 261 0 gusting 4 -0.6
2019-Jan-21 19:30 025 1 gusting 2 -0.6
2019-Jan-21 19:25 291 0 gusting 2 -0.6
2019-Jan-21 19:20 305 -0.6
2019-Jan-21 19:15 278 -0.6
2019-Jan-21 19:10 102 0 gusting 2 -0.6
2019-Jan-21 19:05 101 0 gusting 2 -0.6
2019-Jan-21 19:00 297 0 gusting 2 -0.6
2019-Jan-21 18:55 258 -0.6
2019-Jan-21 18:50 348 -0.6
2019-Jan-21 18:45 261 -0.6
2019-Jan-21 18:40 303 1 gusting 2 -0.6
2019-Jan-21 18:35 270 0 gusting 2 -0.6
2019-Jan-21 18:30 047 0 gusting 2 -0.6
2019-Jan-21 18:25 180 -0.6
2019-Jan-21 18:20 -1.1
2019-Jan-21 18:15 315 -1.1
2019-Jan-21 18:10 018 0 gusting 0 -0.6
2019-Jan-21 18:05 312 -0.6
2019-Jan-21 18:00 248 -0.6
2019-Jan-21 17:55 270 0 gusting 1 -1.1
2019-Jan-21 17:50 245 0 gusting 2 -1.1
2019-Jan-21 17:45 057 0 gusting 2 -1.1
2019-Jan-21 17:40 315 -1.1
2019-Jan-21 17:35 270 -1.1
2019-Jan-21 17:30 140 -1.1
2019-Jan-21 17:25 -1.1
2019-Jan-21 17:20 -1.1
2019-Jan-21 17:15 281 -0.6
2019-Jan-21 17:10 314 1 gusting 2 -0.6
2019-Jan-21 17:05 236 -0.6
2019-Jan-21 17:00 036 0 gusting 1 -0.6
2019-Jan-21 16:55 292 -0.6
2019-Jan-21 16:50 315 -0.6
2019-Jan-21 16:45 270 0 gusting 1 -0.6
2019-Jan-21 16:40 270 0 gusting 1 -0.6
2019-Jan-21 16:35 270 0 gusting 2 -0.6
2019-Jan-21 16:30 287 1 gusting 2 -0.6
2019-Jan-21 16:25 270 1 gusting 2 -0.6
2019-Jan-21 16:20 302 1 gusting 5 -0.6
2019-Jan-21 16:15 292 2 gusting 4 -0.6
2019-Jan-21 16:10 270 1 gusting 4 -0.6
2019-Jan-21 16:05 289 0 gusting 2 -0.6
2019-Jan-21 16:00 270 0 gusting 2 -0.6
2019-Jan-21 15:55 283 1 gusting 2 -0.6
2019-Jan-21 15:50 282 2 gusting 5 -0.6
2019-Jan-21 15:45 272 2 gusting 5 -0.6
2019-Jan-21 15:40 285 1 gusting 5 -0.6
2019-Jan-21 15:35 297 1 gusting 4 -0.6
2019-Jan-21 15:30 270 1 gusting 4 -0.6
2019-Jan-21 15:25 300 1 gusting 4 -0.6
2019-Jan-21 15:20 270 1 gusting 2 -0.0
2019-Jan-21 15:15 270 0 gusting 2 -0.0
2019-Jan-21 15:10 289 1 gusting 4 -0.0
2019-Jan-21 15:05 277 2 gusting 4 -0.0
2019-Jan-21 15:00 270 1 gusting 2 0.6
2019-Jan-21 14:55 270 1 gusting 2 0.6
2019-Jan-21 14:50 277 0 gusting 4 0.6
2019-Jan-21 14:45 277 2 gusting 4 0.6
2019-Jan-21 14:40 272 0 gusting 2 0.6
2019-Jan-21 14:35 270 1 gusting 2 0.6
2019-Jan-21 14:30 270 1 gusting 2 0.6
2019-Jan-21 14:25 344 0.6
2019-Jan-21 14:20 011 1.1
2019-Jan-21 14:15 1.1
2019-Jan-21 14:10 1.1
2019-Jan-21 14:05 043 0 gusting 0 1.1
2019-Jan-21 14:00 009 1.1
2019-Jan-21 13:55 053 0 gusting 1 1.7
2019-Jan-21 13:50 306 1.7
2019-Jan-21 13:45 308 1.7
2019-Jan-21 13:40 1.7
2019-Jan-21 13:35 1.7
2019-Jan-21 13:30 1.7
2019-Jan-21 13:25 354 1.7
2019-Jan-21 13:20 270 0 gusting 2 1.7
2019-Jan-21 13:15 286 1 gusting 2 2.2
2019-Jan-21 13:10 282 1 gusting 2 2.2
2019-Jan-21 13:05 270 2.2
2019-Jan-21 13:00 341 2.2
2019-Jan-21 12:55 028 0 gusting 1 2.2
2019-Jan-21 12:50 059 0 gusting 1 2.2
2019-Jan-21 12:45 035 0 gusting 2 2.8
2019-Jan-21 12:40 147 0 gusting 2 2.8
2019-Jan-21 12:35 270 1 gusting 2 3.3
2019-Jan-21 12:30 088 0 gusting 1 3.3
2019-Jan-21 12:25 060 0 gusting 1 3.9
2019-Jan-21 12:20 001 0 gusting 2 3.9
2019-Jan-21 12:15 039 0 gusting 2 4.4
2019-Jan-21 12:10 012 0 gusting 2 5.0
2019-Jan-21 12:05 295 1 gusting 2 5.0
2019-Jan-21 12:00 300 1 gusting 2 5.0
2019-Jan-21 11:55 303 0 gusting 2 5.0
2019-Jan-21 11:50 277 2 gusting 6 5.0
2019-Jan-21 11:45 284 3.9
2019-Jan-21 11:40 270 1 gusting 2 3.3
2019-Jan-21 11:35 292 1 gusting 4 2.8
2019-Jan-21 11:30 314 2 gusting 6 3.3
2019-Jan-21 11:25 299 2 gusting 4 3.3
2019-Jan-21 11:20 315 2 gusting 5 2.8
2019-Jan-21 11:15 270 2 gusting 5 2.8
2019-Jan-21 11:10 278 1 gusting 5 2.8
2019-Jan-21 11:05 270 2 gusting 5 3.3
2019-Jan-21 11:00 270 2 gusting 5 3.9
2019-Jan-21 10:55 311 1 gusting 4 5.0
2019-Jan-21 10:50 010 5.6
2019-Jan-21 10:45 299 5.6
2019-Jan-21 10:40 358 0 gusting 2 5.0
2019-Jan-21 10:35 275 1 gusting 4 4.4
2019-Jan-21 10:30 270 2 gusting 4 4.4
2019-Jan-21 10:25 270 1 gusting 2 4.4
2019-Jan-21 10:20 298 2 gusting 6 3.3
2019-Jan-21 10:15 293 4 gusting 6 3.9
2019-Jan-21 10:10 270 2 gusting 5 5.0
2019-Jan-21 10:05 275 1 gusting 5 4.4
2019-Jan-21 10:00 282 1 gusting 6 3.9
2019-Jan-21 09:55 299 2 gusting 6 3.9
2019-Jan-21 09:50 295 2 gusting 6 3.3
2019-Jan-21 09:45 275 4 gusting 6 2.8
2019-Jan-21 09:40 270 2 gusting 5 2.8
2019-Jan-21 09:35 270 2 gusting 5 3.9
2019-Jan-21 09:30 286 0 gusting 5 5.0
2019-Jan-21 09:25 358 5.0
2019-Jan-21 09:20 299 0 gusting 2 5.6
2019-Jan-21 09:15 297 0 gusting 2 6.1
2019-Jan-21 09:10 5.0
2019-Jan-21 09:05 351 4.4
2019-Jan-21 09:00 3.3
2019-Jan-21 08:55 315 1.1
2019-Jan-21 08:50 270 1.1
2019-Jan-21 08:45 302 0.6
2019-Jan-21 08:40 270 1 gusting 5 0.6
2019-Jan-21 08:35 270 1 gusting 2 0.6
2019-Jan-21 08:30 064 0.6
2019-Jan-21 08:25 085 1 gusting 2 0.6
2019-Jan-21 08:20 023 0 gusting 2 1.1
2019-Jan-21 08:15 022 1 gusting 2 1.1
2019-Jan-21 08:10 244 1.1
2019-Jan-21 08:05 352 0 gusting 5 0.6
2019-Jan-21 08:00 287 0 gusting 5 0.6
2019-Jan-21 07:55 270 2 gusting 6 0.6
2019-Jan-21 07:50 304 1 gusting 5 0.6
2019-Jan-21 07:45 276 1 gusting 5 0.6
2019-Jan-21 07:40 276 2 gusting 5 0.6
2019-Jan-21 07:35 315 2 gusting 5 0.6
2019-Jan-21 07:30 284 3 gusting 7 0.6
2019-Jan-21 07:25 273 4 gusting 7 0.6
2019-Jan-21 07:20 308 3 gusting 10 0.6
2019-Jan-21 07:15 295 6 gusting 11 0.6
2019-Jan-21 07:10 291 4 gusting 11 -0.0
2019-Jan-21 07:05 312 6 gusting 10 -0.0
2019-Jan-21 07:00 293 4 gusting 10 -0.0
2019-Jan-21 06:55 315 2 gusting 8 -0.0
2019-Jan-21 06:50 303 4 gusting 10 -0.0
2019-Jan-21 06:45 315 5 gusting 13 -0.0
2019-Jan-21 06:40 293 6 gusting 13 -0.6
2019-Jan-21 06:35 293 5 gusting 7 -0.6
2019-Jan-21 06:30 304 3 gusting 6 -0.6
2019-Jan-21 06:25 293 0 gusting 4 -0.6
2019-Jan-21 06:20 271 1 gusting 4 -0.6
2019-Jan-21 06:15 291 0 gusting 4 -0.6
2019-Jan-21 06:10 271 1 gusting 4 -0.6
2019-Jan-21 06:05 288 -0.6
2019-Jan-21 06:00 300 -0.6
2019-Jan-21 05:55 033 -0.6
2019-Jan-21 05:50 090 -0.6
2019-Jan-21 05:45 293 -0.6
2019-Jan-21 05:40 271 -0.6
2019-Jan-21 05:35 270 0 gusting 2 -0.6
2019-Jan-21 05:30 270 0 gusting 1 -0.6
2019-Jan-21 05:25 270 0 gusting 2 -0.6
2019-Jan-21 05:15 286 0 gusting 2 -0.6
2019-Jan-21 00:35 270 2 gusting 5 -0.0
2019-Jan-21 00:30 288 -0.0
2019-Jan-21 00:25 285 0 gusting 2 -0.0
2019-Jan-21 00:20 316 0 gusting 4 -0.0
2019-Jan-21 00:15 031 1 gusting 4 -0.0
2019-Jan-21 00:10 321 -0.0
2019-Jan-21 00:05 280 0 gusting 2 -0.0
2019-Jan-21 00:00 315 -0.0
2019-Jan-20 23:55 294 -0.0
2019-Jan-20 23:50 -0.0
2019-Jan-20 23:45 315 -0.0
2019-Jan-20 23:40 285 0 gusting 1 -0.0
2019-Jan-20 23:35 270 0 gusting 6 -0.0
2019-Jan-20 23:30 276 4 gusting 7 -0.0
2019-Jan-20 23:25 270 2 gusting 6 -0.0
2019-Jan-20 23:20 292 3 gusting 6 -0.0
2019-Jan-20 23:15 297 5 gusting 7 -0.0
2019-Jan-20 23:10 270 4 gusting 6 -0.0
2019-Jan-20 23:05 285 5 gusting 7 -0.0
2019-Jan-20 23:00 315 5 gusting 10 -0.0
2019-Jan-20 22:55 292 5 gusting 8 -0.0
2019-Jan-20 22:50 277 5 gusting 8 -0.0
2019-Jan-20 22:45 274 3 gusting 6 -0.0
2019-Jan-20 22:40 290 2 gusting 6 -0.0
2019-Jan-20 22:35 274 2 gusting 6 -0.0
2019-Jan-20 22:30 293 2 gusting 6 -0.0
2019-Jan-20 22:25 307 4 gusting 7 -0.0
2019-Jan-20 22:20 314 5 gusting 8 -0.0
2019-Jan-20 22:15 330 6 gusting 8 -0.0
2019-Jan-20 22:10 283 6 gusting 8 -0.0
2019-Jan-20 22:05 260 6 gusting 11 -0.0
2019-Jan-20 22:00 270 7 gusting 11 -0.0
2019-Jan-20 21:55 265 5 gusting 11 -0.0
2019-Jan-20 21:50 287 5 gusting 10 -0.0
2019-Jan-20 21:45 276 6 gusting 11 -0.0
2019-Jan-20 21:40 314 5 gusting 11 -0.0
2019-Jan-20 21:35 288 5 gusting 8 -0.0
2019-Jan-20 21:30 302 5 gusting 8 0.6
2019-Jan-20 21:25 287 4 gusting 8 0.6
2019-Jan-20 21:20 271 4 gusting 8 0.6
2019-Jan-20 21:15 281 4 gusting 6 0.6
2019-Jan-20 21:10 283 2 gusting 6 0.6
2019-Jan-20 21:05 267 1 gusting 4 0.6
2019-Jan-20 21:00 271 1 gusting 5 0.6
2019-Jan-20 20:55 292 2 gusting 6 0.6
2019-Jan-20 20:50 305 4 gusting 6 0.6
2019-Jan-20 20:45 267 2 gusting 6 0.6
2019-Jan-20 20:40 270 1 gusting 5 0.6
2019-Jan-20 20:35 277 2 gusting 5 0.6
2019-Jan-20 20:30 278 1 gusting 6 0.6
2019-Jan-20 20:25 273 1 gusting 5 0.6
2019-Jan-20 20:20 298 0.6
2019-Jan-20 20:15 312 0.6
2019-Jan-20 20:10 312 0 gusting 2 0.6
2019-Jan-20 20:05 286 1 gusting 5 0.6
2019-Jan-20 20:00 302 2 gusting 8 0.6
2019-Jan-20 19:55 283 5 gusting 8 0.6
2019-Jan-20 19:50 270 6 gusting 8 0.6
2019-Jan-20 19:45 298 1 gusting 4 0.6
2019-Jan-20 19:40 281 0 gusting 2 0.6
2019-Jan-20 19:35 293 0.6
2019-Jan-20 19:30 284 2 gusting 6 0.6
2019-Jan-20 19:25 284 2 gusting 8 0.6
2019-Jan-20 19:20 271 5 gusting 8 0.6
2019-Jan-20 19:15 279 5 gusting 11 0.6
2019-Jan-20 19:10 305 6 gusting 8 0.6
2019-Jan-20 19:05 270 4 gusting 6 1.1
2019-Jan-20 19:00 290 3 gusting 6 1.1
2019-Jan-20 18:55 291 2 gusting 6 1.1
2019-Jan-20 18:50 294 1 gusting 5 1.1
2019-Jan-20 18:45 286 2 gusting 5 1.1
2019-Jan-20 18:40 270 2 gusting 4 1.1
2019-Jan-20 18:35 290 0 gusting 2 1.1
2019-Jan-20 18:30 299 0 gusting 2 1.1
2019-Jan-20 18:25 274 0 gusting 1 1.1
2019-Jan-20 18:20 270 1.1
2019-Jan-20 18:15 270 1.1
2019-Jan-20 18:10 270 0 gusting 2 1.1
2019-Jan-20 18:05 274 0 gusting 2 1.1
2019-Jan-20 18:00 271 1 gusting 5 1.1
2019-Jan-20 17:55 296 2 gusting 4 0.6
2019-Jan-20 17:50 297 1 gusting 4 0.6
2019-Jan-20 17:45 0.6
2019-Jan-20 17:40 0.6
2019-Jan-20 17:35 313 0.6
2019-Jan-20 17:30 271 0 gusting 1 0.6
2019-Jan-20 17:25 146 0.6
2019-Jan-20 17:20 135 1.1
2019-Jan-20 17:15 273 0.6
2019-Jan-20 17:10 0.6
2019-Jan-20 17:05 283 0.6
2019-Jan-20 17:00 315 0.6
2019-Jan-20 16:55 135 0.6
2019-Jan-20 16:50 295 0.6
2019-Jan-20 16:45 247 0.6
2019-Jan-20 16:40 285 0.6
2019-Jan-20 16:35 0.6
2019-Jan-20 16:30 0.6
2019-Jan-20 16:25 0.6
2019-Jan-20 16:20 0.6
2019-Jan-20 16:15 0.6
2019-Jan-20 16:10 0.6
2019-Jan-20 16:05 0.6
2019-Jan-20 16:00 0.6
2019-Jan-20 15:55 0.6
2019-Jan-20 15:50 026 0.6
2019-Jan-20 15:45 352 1.1
2019-Jan-20 15:40 299 1.1
2019-Jan-20 15:35 270 1.1
2019-Jan-20 15:30 270 1.1
2019-Jan-20 15:25 270 1.1
2019-Jan-20 15:20 270 0 gusting 1 1.1
2019-Jan-20 15:15 045 1.1
2019-Jan-20 15:10 045 1.1
2019-Jan-20 15:05 045 1.1
2019-Jan-20 15:00 045 1.1
2019-Jan-20 14:55 045 1.1
2019-Jan-20 14:50 045 1.1
2019-Jan-20 14:45 135 1.1
2019-Jan-20 14:40 045 1.1
2019-Jan-20 14:35 276 1.7
2019-Jan-20 14:30 050 0 gusting 1 1.7
2019-Jan-20 14:25 292 1.7
2019-Jan-20 14:20 270 1.7
2019-Jan-20 14:15 270 0 gusting 1 1.7
2019-Jan-20 14:10 331 1.7
2019-Jan-20 14:05 280 0 gusting 1 1.7
2019-Jan-20 14:00 090 1.7
2019-Jan-20 13:55 090 0 gusting 0 1.7
2019-Jan-20 13:50 090 1.7
2019-Jan-20 13:45 031 1.7
2019-Jan-20 13:40 299 1.7
2019-Jan-20 13:35 270 1.7
2019-Jan-20 13:30 270 0 gusting 2 1.7
2019-Jan-20 13:25 270 0 gusting 2 1.7
2019-Jan-20 13:20 286 0 gusting 2 1.7
2019-Jan-20 13:15 270 0 gusting 2 1.7
2019-Jan-20 13:10 271 0 gusting 2 1.7
2019-Jan-20 13:05 270 0 gusting 2 1.7
2019-Jan-20 13:00 270 0 gusting 2 1.7
2019-Jan-20 12:55 270 1.7
2019-Jan-20 12:50 270 0 gusting 1 1.7
2019-Jan-20 12:45 270 0 gusting 1 1.7
2019-Jan-20 12:40 270 0 gusting 2 1.7
2019-Jan-20 12:35 270 0 gusting 2 1.7
2019-Jan-20 12:30 281 1.7
2019-Jan-20 12:25 272 0 gusting 2 1.7
2019-Jan-20 12:20 270 1 gusting 2 1.7
2019-Jan-20 12:15 270 1 gusting 4 1.7
2019-Jan-20 12:10 277 2 gusting 4 1.7
2019-Jan-20 12:05 283 1 gusting 4 1.7
2019-Jan-20 12:00 304 2 gusting 4 1.7
2019-Jan-20 11:55 270 1 gusting 4 1.7
2019-Jan-20 11:50 279 1 gusting 2 2.2
2019-Jan-20 11:45 274 0 gusting 4 2.2
2019-Jan-20 11:40 270 1 gusting 4 2.2
2019-Jan-20 11:35 270 1 gusting 5 2.2
2019-Jan-20 11:30 270 1 gusting 5 2.2
2019-Jan-20 11:25 271 1 gusting 4 2.2
2019-Jan-20 11:20 270 1 gusting 4 2.2
2019-Jan-20 11:15 270 1 gusting 4 2.2
2019-Jan-20 11:10 265 1 gusting 2 2.2
2019-Jan-20 11:05 104 0 gusting 2 2.8
2019-Jan-20 11:00 303 0 gusting 1 2.8
2019-Jan-20 10:55 072 0 gusting 1 2.2
2019-Jan-20 10:50 270 1 gusting 2 2.2
2019-Jan-20 10:45 270 1 gusting 2 2.8
2019-Jan-20 10:40 270 2.2
2019-Jan-20 10:35 278 2.2
2019-Jan-20 10:30 019 0 gusting 1 1.7
2019-Jan-20 10:25 037 0 gusting 1 1.7
2019-Jan-20 10:20 331 1.7
2019-Jan-20 10:15 105 0 gusting 1 1.7
2019-Jan-20 10:10 230 0 gusting 1 1.7
2019-Jan-20 10:05 002 1.7
2019-Jan-20 10:00 1.7
2019-Jan-20 09:55 315 1.1
2019-Jan-20 09:50 303 1.1
2019-Jan-20 09:45 021 0 gusting 2 1.1
2019-Jan-20 09:40 289 0 gusting 2 1.7
2019-Jan-20 09:35 180 1.7
2019-Jan-20 09:30 315 1.7
2019-Jan-20 09:25 289 1.7
2019-Jan-20 09:20 007 0 gusting 1 1.1
2019-Jan-20 09:15 1.7
2019-Jan-20 09:10 1.7
2019-Jan-20 09:05 006 1.1
2019-Jan-20 09:00 315 1.1
2019-Jan-20 08:55 315 1.1
2019-Jan-20 08:50 247 1.1
2019-Jan-20 08:45 197 1.1
2019-Jan-20 08:40 332 1.1
2019-Jan-20 08:35 272 1 gusting 2 1.1
2019-Jan-20 08:30 304 1.1
2019-Jan-20 08:25 315 0 gusting 2 0.6
2019-Jan-20 08:20 298 1 gusting 2 0.6
2019-Jan-20 08:15 270 0.6
2019-Jan-20 08:10 292 0 gusting 2 0.6
2019-Jan-20 08:05 265 0 gusting 1 0.6
2019-Jan-20 08:00 270 0 gusting 1 0.6
2019-Jan-20 07:55 292 0.6
2019-Jan-20 07:50 112 0.6
2019-Jan-20 07:45 112 0.6
2019-Jan-20 07:40 112 -0.0
2019-Jan-20 07:35 208 0 gusting 1 0.6
2019-Jan-20 07:30 290 -0.0
2019-Jan-20 07:25 270 -0.0
2019-Jan-20 07:20 332 -0.0
2019-Jan-20 07:15 270 0 gusting 1 -0.0
2019-Jan-20 07:10 348 -0.0
2019-Jan-20 07:05 276 0 gusting 1 -0.0
2019-Jan-20 07:00 281 0 gusting 1 -0.0
2019-Jan-20 06:55 315 -0.0
2019-Jan-20 06:50 270 -0.0
2019-Jan-20 06:45 270 -0.0
2019-Jan-20 06:40 271 -0.0
2019-Jan-20 06:35 -0.0
2019-Jan-20 06:30 290 -0.0
2019-Jan-20 06:25 315 -0.6
2019-Jan-20 06:20 338 0 gusting 0 -0.6
2019-Jan-20 06:15 338 0 gusting 1 -0.0
2019-Jan-20 06:10 315 -0.0
2019-Jan-20 06:05 -0.0
2019-Jan-20 06:00 -0.0
2019-Jan-20 05:55 -0.0
2019-Jan-20 05:50 -0.0
2019-Jan-20 05:45 038 1 gusting 2 -0.0
2019-Jan-20 05:40 270 -0.0
2019-Jan-20 05:35 306 0 gusting 1 -0.0
2019-Jan-20 05:30 347 0 gusting 2 -0.0
2019-Jan-20 05:25 -0.0
2019-Jan-20 05:20 004 0 gusting 2 -0.0
2019-Jan-20 05:15 030 0 gusting 1 -0.0
2019-Jan-20 05:10 302 -0.0
2019-Jan-20 05:05 270 -0.0
2019-Jan-20 05:00 315 -0.0
2019-Jan-20 04:55 303 -0.0
2019-Jan-20 04:50 009 -0.0
2019-Jan-20 04:45 045 0 gusting 2 -0.0
2019-Jan-20 04:40 001 1 gusting 2 -0.0
2019-Jan-20 04:35 333 -0.0
2019-Jan-20 04:30 020 0 gusting 2 -0.0
2019-Jan-20 04:25 027 1 gusting 2 -0.0
2019-Jan-20 04:20 338 0 gusting 2 -0.0
2019-Jan-20 04:15 033 0 gusting 2 -0.0
2019-Jan-20 04:10 343 -0.0
2019-Jan-20 04:05 020 0 gusting 2 -0.0
2019-Jan-20 04:00 270 1 gusting 2 -0.0
2019-Jan-20 03:55 270 1 gusting 2 -0.0
2019-Jan-20 03:50 270 0 gusting 2 -0.0
2019-Jan-20 03:45 270 -0.0
2019-Jan-20 03:40 315 -0.0
2019-Jan-20 03:35 270 -0.0
2019-Jan-20 03:30 045 1 gusting 4 -0.0
2019-Jan-20 03:25 276 -0.0
2019-Jan-20 03:20 -0.0
2019-Jan-20 03:15 338 0 gusting 1 -0.0
2019-Jan-20 03:10 315 -0.0
2019-Jan-20 03:05 315 -0.0
2019-Jan-20 03:00 299 0 gusting 2 -0.0
2019-Jan-20 02:55 353 1 gusting 5 -0.0
2019-Jan-20 02:50 032 1 gusting 5 -0.0
2019-Jan-20 02:45 359 0 gusting 5 -0.0
2019-Jan-20 02:40 -0.0
2019-Jan-20 02:25 045 1 gusting 2 -0.0
2019-Jan-20 02:20 350 -0.0
2019-Jan-20 02:15 -0.0
2019-Jan-20 02:10 -0.0
2019-Jan-20 02:05 316 -0.0
2019-Jan-20 02:00 027 0 gusting 2 -0.6